Regional Weather Roundup
Issued by NWS

Home | Current Version | Previous Version | Text Only | Print | Product List | Glossary Off
Versions: 1 2 3 4 5 6 7 8 9 10 11 12 13 14 15 16 17 18 19 20 21 22 23 24 25 26 27 28 29 30 31 32 33 34 35 36 37 38 39 40 41 42 43 44 45 46 47 48 49 50

000
ASUS43 KLMK 231802
RWRKY
KENTUCKY REGIONAL WEATHER ROUNDUP
NATIONAL WEATHER SERVICE LOUISVILLE KY
200 PM EDT SUN JUL 23 2017

NOTE "FAIR" INDICATES FEW OR NO CLOUDS BELOW 12,000 FEET
WITH NO SIGNIFICANT WEATHER AND/OR OBSTRUCTIONS TO VISIBILITY.

KYZ001>023-026-027-061>063-070>075-231900-
WESTERN AND SOUTH CENTRAL KENTUCKY

CITY           SKY/WX    TMP DP  RH WIND       PRES   REMARKS
PADUCAH        CLOUDY    90  71  53 VRB5      29.89R HX  96
HENDERSON      SUNNY     84  72  67 W5        29.89R
OWENSBORO      PTSUNNY   84  72  67 SE12      29.86F
HOPKINSVILLE   SUNNY     89  75  61 S7        29.85F HX  99
BOWLING GREEN  CLOUDY    85  69  58 E5        29.89F
GLASGOW        NOT AVBL
$$

KYZ024-025-028>034-038-045-046-053-231900-
NORTH CENTRAL KENTUCKY

CITY           SKY/WX    TMP DP  RH WIND       PRES   REMARKS
LOUISVILLE/SDF CLOUDY    81  73  76 S8        29.82F
LOUISVILLE/LOU CLOUDY    79  73  82 S13       29.83F
FORT KNOX      CLOUDY    79  71  77 S8        29.85F
$$

KYZ035>037-039>044-047>052-055>060-089>105-231900-
NORTHEAST KENTUCKY

CITY           SKY/WX    TMP DP  RH WIND       PRES   REMARKS
LEXINGTON      PTSUNNY   78  71  79 S12       29.87F
COVINGTON      CLOUDY    77  73  87 VRB6G18   29.81R
FRANKFORT      CLOUDY    80  70  71 SW12      29.83F
$$

KYZ054-064>069-076>088-106>120-231900-
SOUTHEAST KENTUCKY

CITY           SKY/WX    TMP DP  RH WIND       PRES   REMARKS
JACKSON        CLOUDY    79  68  69 CALM      29.92F
LONDON         CLOUDY    83  64  52 VRB3      29.92F
SOMERSET       PTSUNNY   82  63  51 CALM      29.92F
MIDDLESBORO    PTSUNNY   89  71  55 NE7       29.92F HX  94
MONTICELLO     CLOUDY    82  70  66 MISG      29.93F
$$





USA.gov is the U.S. government's official web portal to all federal, state and local government web resources and services.